Location: Unspecified
(49.2170°N, 0.0000°E)
Time: 16:27:34
(UTC+00:00)

Vanguard 1 - Pass Details

Date: 26 June 2021
Orbit: 651 x 3832 km, 34.2° (Epoch: 23 July)

Event Time Altitude Azimuth Distance (km) Brightness Sun altitude
Rises 23:50:08 0° 270° (W) 7,970 14.7 -17.4°
Reaches altitude 10° 23:56:14 10° 265° (W) 6,834 14.3 -17.4°
Maximum altitude 00:15:10 41° 206° (SSW) 3,811 12.6 -17.4°
Drops below altitude 10° 00:27:30 10° 142° (SE) 4,529 13.0 -17.2°
Sets 00:30:37 0° 134° (SE) 5,158 13.4 -17.2°
